Retour au catalogue

STARLINK-32153

ActifCommunicationsVLEO
NORAD 60330·PAYLOAD·🇺🇸 United States

Lancé Aug 2, 2024 depuis Cape Canaveral Space Force Station

Loading…

Prochains Passages (prochaines 24 heures)

TLE

FraisSource: CelesTrak SupGP

Époque: Sep 15, 2026, 03:03 UTC

1 60330C 24136B   26258.12756944 -.00010903  00000+0 -32207-3 0  2588
2 60330  53.1577 274.5050 0001281  90.4113 352.1107 15.34402352    14

Suivez STARLINK-32153 en temps réel avec AllMySat

Download on the App Store